When you browse on this site, cookies collect data to enhance your experience and personalize the content and advertising you see.
Visit our Privacy Policy to learn more. By continuing to use the site, you agree to this use of cookies and data.
  • In Romania
  • List of Countries
  • For 7 days
  • Water Temperature
  • Satellite Maps
  • Weather Map
  • Weather Widgets
  • user-avatar
    Login

    Hourly Weather Gomoh

    Today, 17 June, Monday

    Time Temperature Precipitation Wind Pressure Humidity
    00:00 +39°C° 0 mm 5 mps 728 mmHg 41%
    01:00 +39°C° 0 mm 5 mps 728 mmHg 40%
    02:00 +38°C° 0 mm 4 mps 727 mmHg 39%
    03:00 +37°C° 0 mm 4 mps 727 mmHg 37%
    04:00 +37°C° 0 mm 4 mps 727 mmHg 39%
    05:00 +36°C° 0 mm 4 mps 728 mmHg 40%
    06:00 +36°C° 0 mm 4 mps 728 mmHg 41%
    07:00 +39°C° 0 mm 5 mps 728 mmHg 36%
    08:00 +40°C° 0 mm 7 mps 729 mmHg 32%
    09:00 +43°C° 0 mm 8 mps 729 mmHg 27%
    10:00 +44°C° 0 mm 7 mps 728 mmHg 26%
    11:00 +45°C° 0 mm 6 mps 728 mmHg 24%
    12:00 +47°C° 0 mm 5 mps 728 mmHg 22%
    13:00 +47°C° 0.2 mm 5 mps 727 mmHg 23%
    14:00 +46°C° 0.2 mm 5 mps 726 mmHg 23%
    15:00 +45°C° 0.2 mm 4 mps 725 mmHg 24%
    16:00 +45°C° 0.1 mm 4 mps 725 mmHg 24%
    17:00 +45°C° 0.1 mm 3 mps 725 mmHg 24%
    18:00 +44°C° 0.1 mm 3 mps 725 mmHg 24%
    19:00 +43°C° 0 mm 4 mps 726 mmHg 28%
    20:00 +41°C° 0 mm 5 mps 726 mmHg 33%
    21:00 +39°C° 0 mm 6 mps 726 mmHg 37%
    22:00 +39°C° 0 mm 5 mps 727 mmHg 39%
    23:00 +37°C° 0 mm 5 mps 727 mmHg 40%

    Tomorrow, 18 June, Tuesday

    Time Temperature Precipitation Wind Pressure Humidity
    00:00 +37°C° 0 mm 5 mps 727 mmHg 42%
    01:00 +37°C° 0 mm 5 mps 727 mmHg 42%
    02:00 +37°C° 0 mm 4 mps 727 mmHg 42%
    03:00 +37°C° 0 mm 4 mps 727 mmHg 42%
    04:00 +36°C° 0 mm 4 mps 727 mmHg 40%
    05:00 +36°C° 0 mm 4 mps 727 mmHg 38%
    06:00 +36°C° 0 mm 4 mps 727 mmHg 36%
    07:00 +39°C° 0 mm 5 mps 728 mmHg 33%
    08:00 +41°C° 0 mm 6 mps 728 mmHg 30%
    09:00 +44°C° 0 mm 7 mps 729 mmHg 26%
    10:00 +45°C° 0 mm 6 mps 728 mmHg 24%
    11:00 +46°C° 0 mm 5 mps 728 mmHg 22%
    12:00 +47°C° 0 mm 5 mps 728 mmHg 20%
    13:00 +47°C° 0 mm 4 mps 727 mmHg 19%
    14:00 +48°C° 0 mm 4 mps 726 mmHg 19%
    15:00 +48°C° 0 mm 4 mps 726 mmHg 19%
    16:00 +45°C° 0 mm 4 mps 725 mmHg 20%
    17:00 +44°C° 0 mm 4 mps 725 mmHg 22%
    18:00 +43°C° 0 mm 5 mps 725 mmHg 24%
    19:00 +42°C° 0.1 mm 4 mps 726 mmHg 26%
    20:00 +41°C° 0.1 mm 4 mps 726 mmHg 29%
    21:00 +39°C° 0.1 mm 3 mps 727 mmHg 31%
    22:00 +39°C° 0 mm 3 mps 727 mmHg 32%
    23:00 +38°C° 0 mm 2 mps 727 mmHg 34%

    Day after tomorrow, 19 June, Wednesday

    Time Temperature Precipitation Wind Pressure Humidity
    00:00 +38°C° 0 mm 2 mps 728 mmHg 35%
    01:00 +37°C° 0 mm 2 mps 727 mmHg 35%
    02:00 +37°C° 0 mm 2 mps 727 mmHg 36%
    03:00 +37°C° 0 mm 2 mps 727 mmHg 36%
    04:00 +37°C° 0 mm 3 mps 727 mmHg 37%
    05:00 +36°C° 0 mm 3 mps 727 mmHg 37%
    06:00 +36°C° 0 mm 3 mps 728 mmHg 38%
    07:00 +38°C° 0 mm 4 mps 728 mmHg 34%
    08:00 +41°C° 0 mm 5 mps 728 mmHg 30%
    09:00 +44°C° 0 mm 6 mps 729 mmHg 26%
    10:00 +45°C° 0 mm 5 mps 728 mmHg 23%
    11:00 +47°C° 0 mm 5 mps 728 mmHg 21%
    12:00 +48°C° 0 mm 5 mps 728 mmHg 18%
    13:00 +48°C° 0 mm 5 mps 727 mmHg 19%
    14:00 +47°C° 0 mm 5 mps 726 mmHg 20%
    15:00 +47°C° 0 mm 5 mps 726 mmHg 20%
    16:00 +46°C° 0 mm 5 mps 726 mmHg 21%
    17:00 +45°C° 0 mm 4 mps 726 mmHg 22%
    18:00 +44°C° 0 mm 3 mps 725 mmHg 24%
    19:00 +43°C° 0 mm 3 mps 726 mmHg 26%
    20:00 +41°C° 0 mm 2 mps 727 mmHg 28%
    21:00 +39°C° 0 mm 1 mps 727 mmHg 30%
    22:00 +39°C° 0 mm 1 mps 727 mmHg 31%
    23:00 +39°C° 0 mm 1 mps 728 mmHg 32%

    20 June, Thursday

    Time Temperature Precipitation Wind Pressure Humidity
    00:00 +37°C° 0 mm 1 mps 728 mmHg 32%
    01:00 +36°C° 0 mm 1 mps 727 mmHg 35%
    02:00 +36°C° 0 mm 1 mps 727 mmHg 38%
    03:00 +36°C° 0 mm 2 mps 727 mmHg 40%
    04:00 +36°C° 0 mm 2 mps 727 mmHg 41%
    05:00 +34°C° 0 mm 1 mps 728 mmHg 42%
    06:00 +34°C° 0 mm 1 mps 728 mmHg 42%
    07:00 +37°C° 0 mm 2 mps 728 mmHg 37%
    08:00 +40°C° 0 mm 2 mps 729 mmHg 31%
    09:00 +43°C° 0 mm 3 mps 729 mmHg 25%
    10:00 +44°C° 0 mm 3 mps 729 mmHg 23%
    11:00 +45°C° 0 mm 3 mps 728 mmHg 21%
    12:00 +47°C° 0 mm 3 mps 728 mmHg 19%
    13:00 +46°C° 0 mm 3 mps 728 mmHg 19%
    14:00 +47°C° 0 mm 4 mps 727 mmHg 19%
    15:00 +47°C° 0 mm 4 mps 726 mmHg 20%
    16:00 +46°C° 0 mm 3 mps 726 mmHg 20%
    17:00 +46°C° 0 mm 3 mps 726 mmHg 20%
    18:00 +45°C° 0 mm 3 mps 726 mmHg 20%
    19:00 +44°C° 0 mm 3 mps 727 mmHg 23%
    20:00 +42°C° 0 mm 2 mps 727 mmHg 26%
    21:00 +40°C° 0 mm 2 mps 727 mmHg 29%
    22:00 +40°C° 0 mm 2 mps 728 mmHg 32%
    23:00 +39°C° 0 mm 1 mps 728 mmHg 36%

    21 June, Friday

    Time Temperature Precipitation Wind Pressure Humidity
    00:00 +37°C° 0 mm 1 mps 728 mmHg 40%
    01:00 +37°C° 0 mm 1 mps 728 mmHg 40%
    02:00 +37°C° 0 mm 1 mps 728 mmHg 41%
    03:00 +37°C° 0 mm 1 mps 727 mmHg 42%
    04:00 +36°C° 0 mm 1 mps 728 mmHg 45%
    05:00 +35°C° 0 mm 1 mps 728 mmHg 48%
    06:00 +35°C° 0 mm 1 mps 728 mmHg 51%
    07:00 +36°C° 0 mm 1 mps 729 mmHg 46%
    08:00 +39°C° 0 mm 1 mps 729 mmHg 41%
    09:00 +40°C° 0 mm 1 mps 729 mmHg 36%
    10:00 +42°C° 0 mm 2 mps 729 mmHg 32%
    11:00 +43°C° 0 mm 2 mps 729 mmHg 28%
    12:00 +46°C° 0 mm 2 mps 728 mmHg 24%
    13:00 +45°C° 0 mm 2 mps 727 mmHg 25%
    14:00 +45°C° 0 mm 3 mps 727 mmHg 25%
    15:00 +45°C° 0 mm 3 mps 726 mmHg 26%
    16:00 +44°C° 0.1 mm 3 mps 726 mmHg 26%
    17:00 +44°C° 0.1 mm 3 mps 726 mmHg 27%
    18:00 +43°C° 0.1 mm 2 mps 725 mmHg 27%
    19:00 +42°C° 0 mm 3 mps 726 mmHg 30%
    20:00 +41°C° 0 mm 4 mps 727 mmHg 34%
    21:00 +40°C° 0 mm 4 mps 727 mmHg 37%
    22:00 +38°C° 0 mm 4 mps 727 mmHg 41%
    23:00 +37°C° 0 mm 4 mps 728 mmHg 45%

    22 June, Saturday

    Time Temperature Precipitation Wind Pressure Humidity
    00:00 +37°C° 0 mm 3 mps 728 mmHg 49%
    01:00 +36°C° 0 mm 3 mps 727 mmHg 51%
    02:00 +36°C° 0 mm 3 mps 727 mmHg 53%
    03:00 +35°C° 0 mm 3 mps 727 mmHg 55%
    04:00 +35°C° 0 mm 3 mps 727 mmHg 55%
    05:00 +35°C° 0 mm 3 mps 727 mmHg 56%
    06:00 +35°C° 0 mm 4 mps 727 mmHg 57%
    07:00 +36°C° 0 mm 4 mps 728 mmHg 52%
    08:00 +38°C° 0 mm 4 mps 728 mmHg 46%
    09:00 +40°C° 0 mm 4 mps 729 mmHg 41%
    10:00 +42°C° 0 mm 4 mps 728 mmHg 37%
    11:00 +43°C° 0 mm 4 mps 728 mmHg 33%
    12:00 +45°C° 0 mm 4 mps 728 mmHg 28%
    13:00 +45°C° 0 mm 4 mps 727 mmHg 27%
    14:00 +45°C° 0 mm 4 mps 726 mmHg 26%
    15:00 +47°C° 0 mm 5 mps 725 mmHg 25%
    16:00 +44°C° 0.3 mm 4 mps 725 mmHg 28%
    17:00 +43°C° 0.3 mm 3 mps 725 mmHg 31%
    18:00 +40°C° 0.3 mm 2 mps 725 mmHg 35%
    19:00 +39°C° 0.3 mm 3 mps 726 mmHg 39%
    20:00 +38°C° 0.3 mm 4 mps 726 mmHg 44%
    21:00 +37°C° 0.3 mm 4 mps 727 mmHg 48%
    22:00 +36°C° 0 mm 5 mps 727 mmHg 52%
    23:00 +36°C° 0 mm 5 mps 727 mmHg 56%
    Show more